Погода в Джербе

Тунис     33°47′37″N   10°52′40″E
темп.,
°C
ветер,
м/с
пор.,
м/с
влажн.,
%
обл.,
%
осадки,
мм/ч
давл.,
гПа
погр.,
м
13 августа, сб
сб1301:00+27вюв22600 0.0 1014203
04:00+26с11620 0.0 1014175
07:00+27сз11570 0.0 1015189
10:00+30ю11460 0.0 1015766
13:00+33ююв22390 0.0 1014953
16:00+33вюв42390 0.0 1013516
19:00+30ююв79570 0.0 1011138
22:00+30ююв69550 0.0 1013155
14 августа, вс
вс1401:00+29ююз711480 0.0 1012171
04:00+29ююз69470 0.0 1010110
07:00+31з49450 0.0 1010273
10:00+34сз911340 0.0 1012534
13:00+37сз68280 0.0 1010696
16:00+34всв65460 0.0 1008219
19:00+30вюв69680 0.0 1008161
22:00+29юв69765 0.0 1010223
15 августа, пн
пн1501:00+29юв58765 0.0 1009181
04:00+29ююв56611 0.0 100886
07:00+31ю44450 0.0 100976
10:00+35зюз34350 0.0 1009411
13:00+38в14290 0.0 10081083
16:00+35вюв88445 0.0 1006232
19:00+31юв812635 0.0 1006154
22:00+31ююв812615 0.0 1008139
16 августа, вт
вт1601:00+30св810792 0.0 1009157
04:00+29в57780 0.0 1008142
07:00+30з33765 0.0 1010151
10:00+34ссз55545 0.0 1011328
13:00+35ссв55500 0.0 1011346
16:00+32св88640 0.0 1010287
19:00+30всв812790 0.0 1010226
22:00+29ссв12822 0.0 101421
17 августа, ср
ср1701:00+29вюв56754 0.0 1012115
04:00+29всв44731 0.0 101156
07:00+30юв45730 0.0 1012177
10:00+35ююв34480 0.0 1012232
13:00+37в33392 0.0 1010625
16:00+35в785354 0.0 1009168
19:00+33ююв71055100 0.0 1009107
22:00+32юв8135755 0.0 1009145